Regional Weather Roundup
Issued by NWS

Home | Current Version | Previous Version | Text Only | Print | Product List | Glossary On
Versions: 1 2 3 4 5 6 7 8 9 10 11 12 13 14 15 16 17 18 19 20 21 22 23 24 25 26 27 28 29 30 31 32 33 34 35 36 37 38 39 40 41 42 43 44 45 46 47 48 49 50
000
ASUS43 KDMX 040007
RWRIA

WEATHER ROUNDUP FOR IOWA
NATIONAL WEATHER SERVICE DES MOINES IA
700 PM CDT THU SEP 03 2015

NOTE: "FAIR" INDICATES FEW OR NO CLOUDS BELOW 12,000 FEET WITH NO
SIGNIFICANT WEATHER AND/OR OBSTRUCTIONS TO VISIBILITY.

* - THESE STATIONS ARE NOT NWS STATIONS...THUS NOT UNDER NWS
QUALITY CONTROL.  THEY ALSO DO NOT REPORT WEATHER SUCH
AS PRECIPITATION OR FOG.

IAZ001>003-012>014-020>022-031>034-043>046-040100-
   NORTHWEST IOWA

CITY           SKY/WX    TMP DP  RH WIND       PRES   REMARKS
CARROLL *      CLEAR     81  75  83 S6        29.83S HX  86
CHEROKEE *     MOCLDY    84  76  76 S8        29.81S HX  92
DENISON *      CLEAR     82  73  74 S12       29.80F HX  88
LE MARS *      PTCLDY    84  75  74 SE7       29.79S HX  92
ORANGE CITY *  CLEAR     84  73  70 SE6       29.80F HX  91
SHELDON *      PTCLDY    82  75  78 SE8       29.80S HX  89
SIOUX CITY     CLEAR     85  71  63 SE9       29.76F HX  90
6HR MIN TEMP:  85; 6HR MAX TEMP:  88;

SPENCER        CLEAR     84  73  69 S7        29.82S HX  90
6HR MIN TEMP:  84; 6HR MAX TEMP:  88;

STORM LAKE *   PTCLDY    82  75  78 S8        29.83F HX  89
$$

IAZ055>058-069>071-079>083-090>094-040100-
   SOUTHWEST IOWA

CITY           SKY/WX    TMP DP  RH WIND       PRES   REMARKS
ATLANTIC *     CLEAR     84  73  70 S7        29.83F HX  91
AUDUBON *      CLEAR     82  75  78 S5        29.85F HX  89
CLARINDA *     CLEAR     84  73  70 S7        29.86S HX  91
COUNCIL BLFS * CLEAR     84  73  70 SE12      29.81S HX  91
CRESTON *      CLEAR     82  73  74 S8        29.88F HX  88
LAMONI         CLEAR     84  69  60 S7        29.88S HX  88
6HR MIN TEMP:  84; 6HR MAX TEMP:  90;

RED OAK *      CLEAR     84  73  70 S8        29.83S HX  91
SHENANDOAH *   CLEAR     86  73  66 SE9       29.82F HX  93
$$

IAZ047>049-059>061-072>074-084-040100-
   CENTRAL IOWA

CITY           SKY/WX    TMP DP  RH WIND       PRES   REMARKS
AMES           CLEAR     83  73  72 S5        29.85S HX  89
6HR MIN TEMP:  83; 6HR MAX TEMP:  89;

ANKENY *       CLEAR     86  72  62 S12       29.85S HX  92
CHARITON *     CLEAR     82  73  74 S6        29.88S HX  88
DES MOINES     PTCLDY    86  70  58 S8        29.85S HX  90
6HR MIN TEMP:  86; 6HR MAX TEMP:  91;

GRINNELL*      CLEAR     84  72  65 S3        29.89S HX  89
KNOXVILLE *    CLEAR     84  73  70 S6        29.86S HX  91
MARSHALLTOWN   MOCLDY    83  73  72 S5        29.87S HX  89
6HR MIN TEMP:  83; 6HR MAX TEMP:  90;

PELLA *        CLEAR     86  77  74 S3        29.88S HX  97
PERRY *          N/A     85  73  66 S5        29.85S HX  91
$$

IAZ004>006-015-016-023>025-035-036-040100-
   NORTH CENTRAL IOWA

CITY           SKY/WX    TMP DP  RH WIND       PRES   REMARKS
ALGONA *       CLEAR     86  75  70 SE10      29.84S HX  95
CLARION *      CLEAR     84  73  70 S8        29.85S HX  91
ESTHERVILLE    PTCLDY    83  74  74 S7        29.83S HX  89
6HR MIN TEMP:  83; 6HR MAX TEMP:  86;

FORT DODGE *   CLEAR     84  72  65 S7        29.84S HX  89
MASON CITY     PTCLDY    83  75  77 SE7       29.87F HX  90
6HR MIN TEMP:  83; 6HR MAX TEMP:  89;

FOREST CITY *  PTCLDY    82  72  69 SE6       29.86S HX  87
IOWA FALLS *   MOCLDY    84  75  74 SE6       29.88S HX  92
$$

IAZ007>011-017>019-026>030-037>042-050>054-066-040100-
   NORTHEAST IOWA

CITY           SKY/WX    TMP DP  RH WIND       PRES   REMARKS
CEDAR RAPIDS   PTCLDY    85  76  74 S3        29.87F HX  94
6HR MIN TEMP:  85; 6HR MAX TEMP:  88;

CHARLES CITY * CLEAR     82  79  89 SE5       29.88S HX  93
CLINTON *      CLEAR     84  73  70 SW5       29.91S HX  91
DECORAH *      CLEAR     84  75  74 CALM      29.88S HX  92
DUBUQUE        CLEAR     83  75  77 S5        29.90S HX  90
6HR MIN TEMP:  83; 6HR MAX TEMP:  88;

MONTICELLO *   PTCLDY    84  75  74 S3        29.88S HX  92
OELWEIN *      PTCLDY    84  75  74 S5        29.89S HX  92
WATERLOO       MOCLDY    86  73  65 S7        29.86S HX  93
6HR MIN TEMP:  86; 6HR MAX TEMP:  91;

$$

IAZ064-065-067-068-078-040100-
   EAST CENTRAL IOWA

CITY           SKY/WX    TMP DP  RH WIND       PRES   REMARKS
DAVENPORT      CLEAR     84  72  67 S3        29.89S HX  89
6HR MIN TEMP:  84; 6HR MAX TEMP:  90;

IOWA CITY      PTCLDY    87  72  60 S3        29.88S HX  93
6HR MIN TEMP:  87; 6HR MAX TEMP:  90;

MT. PLEASANT * CLEAR     88  68  52 S5        29.88S HX  91
MUSCATINE *    CLEAR     90  70  51 CALM      29.87S HX  95
QUAD CITIES    CLEAR     88  71  57 S3        29.88S HX  94
6HR MIN TEMP:  87; 6HR MAX TEMP:  93;

$$

IAZ062-063-075>077-085>089-095>099-040100-
   SOUTHEAST IOWA

CITY           SKY/WX    TMP DP  RH WIND       PRES   REMARKS
BURLINGTON     CLEAR     87  70  56 S5        29.88F HX  92
6HR MIN TEMP:  87; 6HR MAX TEMP:  93;

FAIRFIELD *    PTCLDY    86  68  54 SW3       29.88S HX  89
FORT MADISON * CLEAR     84  72  65 CALM      29.90S HX  89
KEOKUK *       CLEAR     88  70  55 S5        29.88S HX  92
OSKALOOSA *      N/A     85  70  60 SW3       29.88S HX  90
CENTERVILLE *  CLEAR     82  72  69 S5        29.91S HX  87
OTTUMWA        CLEAR     83  73  72 S6        29.86S HX  89
6HR MIN TEMP:  83; 6HR MAX TEMP:  90;

WASHINGTON *     N/A    N/A N/A N/A MISG        N/A
$$

ABBREVIATIONS USED IN REMARKS
   TC - TEMPERATURES IN CELSIUS
  WCI - WIND CHILL INDEX
   HX - HEAT INDEX
  VSB - VISIBILITY
$$




USA.gov is the U.S. government's official web portal to all federal, state and local government web resources and services.